Location: Bessat
(45.8735°N, 1.9924°E)
Time: 09:09:55
(UTC+00:00)

Cosmos 2278 Rocket - Pass Details

Date: 11 May 2021
Orbit: 841 x 845 km, 71.0° (Epoch: 15 June)

Event Time Altitude Azimuth Distance (km) Brightness Sun altitude
Exits shadow 20:16:59 - 174° (S) 3,138 4.7 -10.2°
Reaches altitude 10° 20:18:57 10° 166° (SSE) 2,452 4.1 -10.4°
Maximum altitude 20:23:53 32° 105° (ESE) 1,403 2.9 -11.1°
Drops below altitude 10° 20:28:50 10° 44° (NE) 2,467 4.6 -11.7°
Sets 20:31:30 0° 34° (NE) 3,407 5.5 -12.1°
